El Centro, CA

2:08 AM PDT on April 23, 2017 (GMT -0700)
El Centro Naval Air Facility

Weather History for KNJK - January, 2013

Change the Weather History Date:

Monday, January 28, 2013

  Actual Average Record
Temperature  
Mean Temperature 54 °F -  
Max Temperature 63 °F 69 °F 82 °F (2014)
Min Temperature 44 °F 45 °F 32 °F (2012)
Degree Days  
Heating Degree Days 10    
Growing Degree Days 4 (Base 50)    
Moisture  
Dew Point 33 °F    
Average Humidity 48    
Maximum Humidity 68    
Minimum Humidity 23    
Precipitation  
Precipitation 0.00 in - - ()
Sea Level Pressure  
Sea Level Pressure 30.09 in    
Wind  
Wind Speed 10 mph (West)    
Max Wind Speed 17 mph    
Max Gust Speed 22 mph    
Visibility 10 miles    
Events      
Averages and records for this station are not official NWS values.
T = Trace of Precipitation, MM = Missing Value Source: NWS Daily Summary

Daily Weather History Graph

Daily Weather History Graph

Search for Another Location

Airport or City:

Trip Planner

Search our weather history database for the weather conditions in past years. The results will help you decide how hot, cold, wet, or windy it might be!

Date:

Astronomy

Jan. 28, 2013 Rise Set
Actual Time 6:40 AM PST 5:11 PM PST
Civil Twilight 6:13 AM PST 5:37 PM PST
Nautical Twilight 5:44 AM PST 6:07 PM PST
Astronomical Twilight 5:15 AM PST 6:36 PM PST
Moon 7:01 PM PST (1/28) 7:15 AM PST (1/28)
Length of Visible Light 11h 23m
Length of Day
10h 31m
Full, 97% of the Moon is Illuminated
Jan 28
Full
Feb 3
Last Quarter
Feb 9
New
Feb 17
First Quarter
Feb 25
Full

Hourly Weather History & Observations

Time (PST) Temp. Windchill Dew Point Humidity Pressure Visibility Wind Dir Wind Speed Gust Speed Precip Events Conditions
12:56 AM 51.1 °F - 35.1 °F 54% 30.03 in 10.0 mi WSW 11.5 mph 17.3 mph N/A   Clear
1:56 AM 50.0 °F - 34.0 °F 54% 30.04 in 10.0 mi WSW 11.5 mph - N/A   Clear
2:56 AM 51.1 °F - 33.1 °F 50% 30.04 in 10.0 mi NW 3.5 mph - N/A   Mostly Cloudy
3:56 AM 48.0 °F - 36.0 °F 63% 30.05 in 10.0 mi West 10.4 mph - N/A   Clear
4:56 AM 48.0 °F - 36.0 °F 63% 30.05 in 10.0 mi Calm Calm - N/A   Partly Cloudy
5:56 AM 48.0 °F - 37.0 °F 66% 30.06 in 10.0 mi SW 13.8 mph - N/A   Mostly Cloudy
6:56 AM 48.0 °F - 37.9 °F 68% 30.08 in 10.0 mi SW 8.1 mph - N/A   Partly Cloudy
7:56 AM 50.0 °F - 39.0 °F 66% 30.09 in 10.0 mi West 8.1 mph - N/A   Partly Cloudy
8:56 AM 55.9 °F - 37.0 °F 49% 30.09 in 10.0 mi West 12.7 mph - N/A   Partly Cloudy
9:56 AM 57.9 °F - 37.0 °F 46% 30.11 in 10.0 mi West 12.7 mph - N/A   Clear
10:56 AM 60.1 °F - 32.0 °F 35% 30.11 in 10.0 mi West 13.8 mph - N/A   Partly Cloudy
11:56 AM 61.0 °F - 28.9 °F 30% 30.10 in 10.0 mi West 9.2 mph - N/A   Scattered Clouds
12:56 PM 62.1 °F - 27.0 °F 26% 30.08 in 10.0 mi WNW 11.5 mph 21.9 mph N/A   Mostly Cloudy
1:56 PM 63.0 °F - 26.1 °F 25% 30.07 in 10.0 mi NW 16.1 mph - N/A   Mostly Cloudy
2:56 PM 62.1 °F - 24.1 °F 23% 30.06 in 10.0 mi NNW 13.8 mph - N/A   Mostly Cloudy
3:56 PM 61.0 °F - 24.1 °F 24% 30.07 in 10.0 mi NW 17.3 mph - N/A   Mostly Cloudy
4:56 PM 57.0 °F - 33.1 °F 40% 30.09 in 10.0 mi North 5.8 mph - N/A   Scattered Clouds
5:56 PM 54.0 °F - 30.0 °F 40% 30.10 in 10.0 mi WNW 6.9 mph - N/A   Partly Cloudy
6:56 PM 52.0 °F - 30.9 °F 45% 30.12 in 10.0 mi West 10.4 mph - N/A   Partly Cloudy
7:56 PM 50.0 °F - 32.0 °F 50% 30.13 in 10.0 mi West 4.6 mph - N/A   Partly Cloudy
8:56 PM 48.9 °F - 33.1 °F 54% 30.14 in 10.0 mi WSW 10.4 mph - N/A   Clear
9:56 PM 48.0 °F - 33.1 °F 56% 30.15 in 10.0 mi West 11.5 mph - N/A   Clear
10:56 PM 46.0 °F 43.1 °F 33.1 °F 61% 30.17 in 10.0 mi West 5.8 mph - N/A   Clear
11:56 PM 44.1 °F 39.5 °F 33.1 °F 65% 30.18 in 10.0 mi WSW 8.1 mph - N/A   Clear